{"data":{"norad_id":48656,"intl_designator":"2021-044U","name":"STARLINK-2701","alt_names":[],"object_type":"PAYLOAD","status":"ACTIVE","operator":null,"country":"US","launch_date":"2021-05-26","launch_site_code":"AFETR","launch_vehicle":null,"mission":null,"orbit_class":"UNKNOWN","rcs_meters":null,"size_class":null,"mass_kg":null,"dimensions":null,"purposes":["comms"],"wikipedia_slug":null,"has_3d_model":false,"image_url":null,"decayed_at":null,"tle_current":{"epoch":"2026-05-25T04:20:25.431360Z","epoch_age_seconds":69601,"freshness":"FRESH","line1":"1 48656U 21044U   26145.18084990  .00000545  00000+0  29325-4 0  9995","line2":"2 48656  53.1588 118.0713 0001266  93.8690 266.2456 15.31696393275542","mean_motion":15.31696393,"eccentricity":0.0001266,"inclination_deg":53.1588,"raan_deg":118.0713,"arg_perigee_deg":93.869,"mean_anomaly_deg":266.2456,"bstar":2.9325e-5,"rev_number":27554,"period_min":94.013409353246,"perigee_km":469.88367833722,"apogee_km":471.61781671489,"semimajor_km":6848.8877475261,"source":"CELESTRAK","updated_at":"2026-05-25T13:38:16.756365Z"}}}